{"data":{"norad_id":54675,"epoch":"2026-09-19T15:56:32.341344Z","epoch_age_seconds":94454,"freshness":"FRESH","line1":"1 54675U 22166AK  26262.66426321 -.00000004  00000+0 -40667-4 0  9994","line2":"2 54675  87.9286 225.1739 0002172  82.4876 277.6505 13.21826536183916","mean_motion":13.21826536,"eccentricity":0.0002172,"inclination_deg":87.9286,"raan_deg":225.1739,"arg_perigee_deg":82.4876,"mean_anomaly_deg":277.6505,"bstar":-4.0667e-5,"rev_number":18391,"period_min":108.94016429399,"perigee_km":1176.1101868169,"apogee_km":1179.3924647056,"semimajor_km":7555.8883257612,"source":"CELESTRAK","updated_at":"2026-09-20T09:00:44.748185Z"}}